Time,TemperatureF,DewpointF,PressureIn,WindDirection,WindDirectionDegrees,WindSpeedMPH,WindSpeedGustMPH,Humidity,HourlyPrecipIn,Conditions,Clouds,dailyrainin,SoftwareType,DateUTC
2014-02-10 00:00:00,59.9,55.7,29.98,South,180,3.0,10.0,86,0.00,,,-99.99,WeatherLink 5.6,2014-02-10 06:00:00,
2014-02-10 00:30:00,59.6,56.0,29.98,SSW,202,5.0,12.0,88,0.00,,,-99.99,WeatherLink 5.6,2014-02-10 06:30:00,
2014-02-10 01:00:00,59.0,56.1,29.98,SSW,202,8.0,13.0,90,0.00,,,-99.99,WeatherLink 5.6,2014-02-10 07:00:00,
2014-02-10 01:30:00,58.9,56.3,29.98,SSW,202,5.0,11.0,91,0.00,,,-99.99,WeatherLink 5.6,2014-02-10 07:30:00,
2014-02-10 02:00:00,59.5,56.6,29.98,SSW,202,7.0,12.0,90,0.00,,,-99.99,WeatherLink 5.6,2014-02-10 08:00:00,
2014-02-10 02:30:00,59.2,56.0,29.97,SSW,202,6.0,13.0,89,0.00,,,-99.99,WeatherLink 5.6,2014-02-10 08:30:00,
2014-02-10 03:00:00,58.4,55.5,29.97,SSW,202,3.0,10.0,90,0.00,,,-99.99,WeatherLink 5.6,2014-02-10 09:00:00,
2014-02-10 03:30:00,57.3,55.0,29.97,SSW,202,1.0,5.0,92,0.00,,,-99.99,WeatherLink 5.6,2014-02-10 09:30:00,
2014-02-10 04:00:00,55.9,53.9,29.97,WSW,247,0.0,4.0,93,0.00,,,-99.99,WeatherLink 5.6,2014-02-10 10:00:00,
2014-02-10 04:30:00,55.3,53.6,29.97,WSW,247,0.0,1.0,94,0.00,,,-99.99,WeatherLink 5.6,2014-02-10 10:30:00,
2014-02-10 05:00:00,54.5,53.1,29.97,North,-999,0.0,0.0,95,0.00,,,-99.99,WeatherLink 5.6,2014-02-10 11:00:00,
2014-02-10 05:30:00,52.8,51.4,29.98,North,-999,0.0,0.0,95,0.00,,,-99.99,WeatherLink 5.6,2014-02-10 11:30:00,
2014-02-10 06:00:00,53.1,52.0,29.99,North,-999,0.0,0.0,96,0.00,,,-99.99,WeatherLink 5.6,2014-02-10 12:00:00,
2014-02-10 06:30:00,54.1,53.0,29.99,WSW,247,0.0,3.0,96,0.00,,,-99.99,WeatherLink 5.6,2014-02-10 12:30:00,
2014-02-10 07:00:00,53.9,53.1,30.00,North,-999,0.0,0.0,97,0.00,,,-99.99,WeatherLink 5.6,2014-02-10 13:00:00,
2014-02-10 07:30:00,54.2,53.4,30.00,North,-999,0.0,0.0,97,0.00,,,-99.99,WeatherLink 5.6,2014-02-10 13:30:00,
2014-02-10 08:00:00,56.6,55.8,30.00,North,-999,0.0,0.0,97,0.00,,,-99.99,WeatherLink 5.6,2014-02-10 14:00:00,
2014-02-10 08:30:00,59.9,58.2,30.01,West,270,0.0,3.0,94,0.00,,,-99.99,WeatherLink 5.6,2014-02-10 14:30:00,
2014-02-10 09:00:00,61.0,57.4,30.02,West,270,1.0,5.0,88,0.00,,,-99.99,WeatherLink 5.6,2014-02-10 15:00:00,
2014-02-10 09:30:00,61.5,57.3,30.03,North,-999,0.0,0.0,86,0.00,,,-99.99,WeatherLink 5.6,2014-02-10 15:30:00,
2014-02-10 10:00:00,61.5,57.6,30.03,SSW,202,3.0,9.0,87,0.00,,,-99.99,WeatherLink 5.6,2014-02-10 16:00:00,
2014-02-10 10:30:00,62.7,57.8,30.02,SSW,202,4.0,11.0,84,0.00,,,-99.99,WeatherLink 5.6,2014-02-10 16:30:00,
2014-02-10 11:00:00,64.7,57.7,30.01,SSW,202,4.0,10.0,78,0.00,,,-99.99,WeatherLink 5.6,2014-02-10 17:00:00,
2014-02-10 11:30:00,65.0,58.0,30.00,SW,225,4.0,11.0,78,0.00,,,-99.99,WeatherLink 5.6,2014-02-10 17:30:00,
2014-02-10 12:00:00,65.5,57.7,29.99,SSW,202,6.0,14.0,76,0.00,,,-99.99,WeatherLink 5.6,2014-02-10 18:00:00,
2014-02-10 12:30:00,64.2,57.2,29.98,SSW,202,7.0,15.0,78,0.00,,,-99.99,WeatherLink 5.6,2014-02-10 18:30:00,
2014-02-10 13:00:00,63.5,56.9,29.97,SSW,202,8.0,17.0,79,0.00,,,-99.99,WeatherLink 5.6,2014-02-10 19:00:00,
2014-02-10 13:30:00,64.3,57.3,29.95,SW,225,5.0,14.0,78,0.00,,,-99.99,WeatherLink 5.6,2014-02-10 19:30:00,
2014-02-10 14:00:00,64.5,57.5,29.95,SSW,202,4.0,13.0,78,0.00,,,-99.99,WeatherLink 5.6,2014-02-10 20:00:00,
2014-02-10 14:30:00,63.2,56.9,29.94,SSW,202,6.0,11.0,80,0.00,,,-99.99,WeatherLink 5.6,2014-02-10 20:30:00,
2014-02-10 15:00:00,63.1,57.2,29.93,SSW,202,5.0,11.0,81,0.00,,,-99.99,WeatherLink 5.6,2014-02-10 21:00:00,
2014-02-10 15:30:00,63.4,57.5,29.93,South,180,4.0,11.0,81,0.00,,,-99.99,WeatherLink 5.6,2014-02-10 21:30:00,
2014-02-10 16:00:00,63.5,57.6,29.94,South,180,2.0,7.0,81,0.00,,,-99.99,WeatherLink 5.6,2014-02-10 22:00:00,
2014-02-10 16:30:00,62.6,58.0,29.95,SSW,202,1.0,7.0,85,0.00,,,-99.99,WeatherLink 5.6,2014-02-10 22:30:00,
2014-02-10 17:00:00,61.0,58.4,29.95,SSW,202,0.0,4.0,91,0.01,,,-99.99,WeatherLink 5.6,2014-02-10 23:00:00,
2014-02-10 17:30:00,60.7,58.7,29.94,North,-999,0.0,0.0,93,0.01,,,-99.99,WeatherLink 5.6,2014-02-10 23:30:00,
2014-02-10 18:00:00,60.1,58.7,29.95,North,0,0.0,3.0,95,0.00,,,-99.99,WeatherLink 5.6,2014-02-11 00:00:00,
2014-02-10 18:30:00,57.5,55.8,29.97,NE,45,1.0,5.0,94,0.01,,,-99.99,WeatherLink 5.6,2014-02-11 00:30:00,
2014-02-10 19:00:00,55.9,54.5,29.98,NNE,22,0.0,5.0,95,0.01,,,-99.99,WeatherLink 5.6,2014-02-11 01:00:00,
2014-02-10 19:30:00,54.7,53.6,29.98,NE,45,2.0,10.0,96,0.00,,,-99.99,WeatherLink 5.6,2014-02-11 01:30:00,
2014-02-10 20:00:00,53.3,52.2,29.99,NNE,22,1.0,9.0,96,0.00,,,-99.99,WeatherLink 5.6,2014-02-11 02:00:00,
2014-02-10 20:30:00,51.9,50.8,29.99,NE,45,2.0,10.0,96,0.00,,,-99.99,WeatherLink 5.6,2014-02-11 02:30:00,
2014-02-10 21:00:00,51.0,49.9,29.99,NE,45,4.0,12.0,96,0.00,,,-99.99,WeatherLink 5.6,2014-02-11 03:00:00,
2014-02-10 21:30:00,50.5,49.4,29.98,NE,45,6.0,14.0,96,0.00,,,-99.99,WeatherLink 5.6,2014-02-11 03:30:00,
2014-02-10 22:00:00,49.9,48.8,29.99,NE,45,3.0,11.0,96,0.00,,,-99.99,WeatherLink 5.6,2014-02-11 04:00:00,
2014-02-10 22:30:00,49.6,48.5,29.98,NE,45,4.0,13.0,96,0.00,,,-99.99,WeatherLink 5.6,2014-02-11 04:30:00,
2014-02-10 23:00:00,49.4,48.3,29.97,NE,45,6.0,13.0,96,0.00,,,-99.99,WeatherLink 5.6,2014-02-11 05:00:00,
2014-02-10 23:30:00,49.1,48.0,29.97,NE,45,4.0,16.0,96,0.00,,,-99.99,WeatherLink 5.6,2014-02-11 05:30:00,